Preview of NWS' New Version of Forecast
This preview is not operational and should not be used for support decisions.

Regional Weather Roundup (RWR)

Issued by National Weather Service (NWS)

                            
000
ASUS45 KBOI 250010
RWRID 

IDAHO REGIONAL WEATHER ROUNDUP
NATIONAL WEATHER SERVICE BOISE ID
600 PM MDT MON JUN 24 2019

NOTE: "FAIR" INDICATES FEW OR NO CLOUDS BELOW 12000 FEET
WITH NO SIGNIFICANT WEATHER AND/OR OBSTRUCTIONS TO VISIBILITY

IDZ012-014-250100-
SOUTHWEST IDAHO

  
CITY           SKY/WX    TMP DP  RH WIND       PRES   REMARKS
BOISE          SUNNY     78  40  25 N12G17    29.86F                  
CALDWELL       MOSUNNY   78  44  29 N8        29.85F                  
MOUNTAIN HOME  SUNNY     79  37  22 N14       29.84F                  
$$

IDZ016-017-250100-
SOUTHCENTRAL IDAHO

  
CITY           SKY/WX    TMP DP  RH WIND       PRES   REMARKS
BURLEY         SUNNY     75  36  24 VRB5      29.89F                  
JEROME         SUNNY     77  39  25 NW9       29.90F                  
TWIN FALLS     SUNNY     75  37  25 NW7       29.90F                  
$$

IDZ019>023-250100-
SOUTHEAST IDAHO

  
CITY           SKY/WX    TMP DP  RH WIND       PRES   REMARKS
IDAHO FALLS    SUNNY     73  30  20 SW22G35   29.89F                  
POCATELLO      MOSUNNY   76  29  17 W22G28    29.92F                  
REXBURG        MOSUNNY   73  32  22 SW23G30   29.87F                  
$$

IDZ006-010-011-018-031-032-250100-
CENTRAL IDAHO MOUNTAINS

  
CITY           SKY/WX    TMP DP  RH WIND       PRES   REMARKS
MCCALL         MOSUNNY   64  32  30 SW13      29.94F                  
HAILEY         MOSUNNY   68  37  32 SW8G16    29.96F                  
STANLEY          N/A     61  27  27 VRB5      30.01S                  
SALMON         PTSUNNY   68  42  38 CALM      29.85F                  
CHALLIS        MOSUNNY   75  27  17 W13G20    29.89F                  
$$

IDZ002-004-006-007-026-250100-
NORTHERN IDAHO

  
CITY           SKY/WX    TMP DP  RH WIND       PRES   REMARKS
LEWISTON       SUNNY     75  39  27 VRB7G18   29.86F                  
LOWELL           N/A     79  48  33 VRB3      29.83F                  
COEUR D'ALENE  MOSUNNY   69  41  36 SE10      29.90F                  
MULLAN PASS    MOSUNNY   51  33  50 VRB3      29.98F                  
$$